VOCB

Coimbatore International Airport

Airport
ICAO code
VOCB
IATA Code
CJB
Summary
ICAO Region
APAC
ICAO Territory
Location

Peelamedu, Tamil Nadu

Serving
Coimbatore
Elevation
1324 ft
Coordinates
11° 1' 49" N , 77° 2' 20" E
KCC
Metar
VOCB 301500Z 23011KT 5000 BR FEW008 SCT015 26/24 Q1009 NOSIG

Coimbatore International Airport is located at Peelamedu, approximately 11 km from the central business district of Coimbatore, a large city in Tamil Nadu.

Climatology

Tropical Savanna climate (Köppen climate classification Aw) - monthly mean temperatures above 18°C, and a pronounced dry season. A Tropical Savanna climate has more pronounced dry seasons than a Tropical Monsoon climate.

Airport map

Aerial View

SKYbrary Partners:

Safety knowledge contributed by: